<?xml version="1.0"?>
<gpx xmlns="http://www.topografix.com/GPX/1/1" xmlns:xsi="http://www.w3.org/2001/XMLSchema-instance" version="1.1" creator="GPX RubyGem 1.0.0 -- http://dougfales.github.io/gpx/" xsi:schemaLocation="http://www.topografix.com/GPX/1/1 http://www.topografix.com/GPX/1/1/gpx.xsd">
  <metadata>
    <name/>
    <time>2026-05-08T05:42:47+00:00</time>
    <bound minlat="90.0" minlon="180.0" maxlat="-90.0" maxlon="-180.0"/>
  </metadata>
  <trk>
    <name/>
    <trkseg>
      <trkpt lat="43.1627" lon="5.60584">
        <time>1970-01-01T00:00:00+00:00</time>
        <ele>1.0</ele>
      </trkpt>
      <trkpt lat="43.16276" lon="5.60575">
        <time>1970-01-01T00:00:00+00:00</time>
        <ele>5.0</ele>
      </trkpt>
      <trkpt lat="43.1626" lon="5.60579">
        <time>1970-01-01T00:00:00+00:00</time>
        <ele>4.0</ele>
      </trkpt>
      <trkpt lat="43.162332" lon="5.60563">
        <time>1970-01-01T00:00:00+00:00</time>
        <ele>31.0</ele>
      </trkpt>
      <trkpt lat="43.16239" lon="5.6058">
        <time>1970-01-01T00:00:00+00:00</time>
        <ele>25.0</ele>
      </trkpt>
      <trkpt lat="43.16236" lon="5.60594">
        <time>1970-01-01T00:00:00+00:00</time>
        <ele>34.0</ele>
      </trkpt>
      <trkpt lat="43.16242" lon="5.60603">
        <time>1970-01-01T00:00:00+00:00</time>
        <ele>27.0</ele>
      </trkpt>
      <trkpt lat="43.16238" lon="5.60617">
        <time>1970-01-01T00:00:00+00:00</time>
        <ele>33.0</ele>
      </trkpt>
      <trkpt lat="43.16248" lon="5.60624">
        <time>1970-01-01T00:00:00+00:00</time>
        <ele>20.0</ele>
      </trkpt>
      <trkpt lat="43.16245" lon="5.60636">
        <time>1970-01-01T00:00:00+00:00</time>
        <ele>23.0</ele>
      </trkpt>
      <trkpt lat="43.16253" lon="5.60647">
        <time>1970-01-01T00:00:00+00:00</time>
        <ele>12.0</ele>
      </trkpt>
      <trkpt lat="43.1623" lon="5.60688">
        <time>1970-01-01T00:00:00+00:00</time>
        <ele>16.0</ele>
      </trkpt>
      <trkpt lat="43.1623" lon="5.60698">
        <time>1970-01-01T00:00:00+00:00</time>
        <ele>10.0</ele>
      </trkpt>
      <trkpt lat="43.16218" lon="5.60707">
        <time>1970-01-01T00:00:00+00:00</time>
        <ele>15.0</ele>
      </trkpt>
      <trkpt lat="43.16223" lon="5.60714">
        <time>1970-01-01T00:00:00+00:00</time>
        <ele>6.0</ele>
      </trkpt>
      <trkpt lat="43.1622" lon="5.60724">
        <time>1970-01-01T00:00:00+00:00</time>
        <ele>3.0</ele>
      </trkpt>
      <trkpt lat="43.16191" lon="5.60764">
        <time>1970-01-01T00:00:00+00:00</time>
        <ele>-5.0</ele>
      </trkpt>
      <trkpt lat="43.16163" lon="5.60774">
        <time>1970-01-01T00:00:00+00:00</time>
        <ele>-4.0</ele>
      </trkpt>
      <trkpt lat="43.16147" lon="5.60766">
        <time>1970-01-01T00:00:00+00:00</time>
        <ele>2.0</ele>
      </trkpt>
      <trkpt lat="43.16135" lon="5.60784">
        <time>1970-01-01T00:00:00+00:00</time>
        <ele>-8.0</ele>
      </trkpt>
      <trkpt lat="43.16128" lon="5.60784">
        <time>1970-01-01T00:00:00+00:00</time>
        <ele>-8.0</ele>
      </trkpt>
      <trkpt lat="43.16109" lon="5.60756">
        <time>1970-01-01T00:00:00+00:00</time>
        <ele>-6.0</ele>
      </trkpt>
      <trkpt lat="43.16105" lon="5.60759">
        <time>1970-01-01T00:00:00+00:00</time>
        <ele>-8.0</ele>
      </trkpt>
      <trkpt lat="43.16108" lon="5.60754">
        <time>1970-01-01T00:00:00+00:00</time>
        <ele>-5.0</ele>
      </trkpt>
      <trkpt lat="43.16103" lon="5.60747">
        <time>1970-01-01T00:00:00+00:00</time>
        <ele>-3.0</ele>
      </trkpt>
      <trkpt lat="43.16104" lon="5.60756">
        <time>1970-01-01T00:00:00+00:00</time>
        <ele>-7.0</ele>
      </trkpt>
      <trkpt lat="43.160968" lon="5.607572">
        <time>1970-01-01T00:00:00+00:00</time>
        <ele>-8.0</ele>
      </trkpt>
      <trkpt lat="43.160914" lon="5.607472">
        <time>1970-01-01T00:00:00+00:00</time>
        <ele>-5.0</ele>
      </trkpt>
      <trkpt lat="43.16059" lon="5.60752">
        <time>1970-01-01T00:00:00+00:00</time>
        <ele>-7.0</ele>
      </trkpt>
      <trkpt lat="43.16051" lon="5.60717">
        <time>1970-01-01T00:00:00+00:00</time>
        <ele>-4.0</ele>
      </trkpt>
      <trkpt lat="43.16048" lon="5.60615">
        <time>1970-01-01T00:00:00+00:00</time>
        <ele>-3.0</ele>
      </trkpt>
      <trkpt lat="43.16035" lon="5.60575">
        <time>1970-01-01T00:00:00+00:00</time>
        <ele>-5.0</ele>
      </trkpt>
      <trkpt lat="43.16043" lon="5.60558">
        <time>1970-01-01T00:00:00+00:00</time>
        <ele>0.0</ele>
      </trkpt>
      <trkpt lat="43.16037" lon="5.60482">
        <time>1970-01-01T00:00:00+00:00</time>
        <ele>-3.0</ele>
      </trkpt>
      <trkpt lat="43.1604" lon="5.60466">
        <time>1970-01-01T00:00:00+00:00</time>
        <ele>0.0</ele>
      </trkpt>
      <trkpt lat="43.16038" lon="5.6047">
        <time>1970-01-01T00:00:00+00:00</time>
        <ele>-1.0</ele>
      </trkpt>
      <trkpt lat="43.16068" lon="5.60446">
        <time>1970-01-01T00:00:00+00:00</time>
        <ele>7.0</ele>
      </trkpt>
      <trkpt lat="43.16099" lon="5.60443">
        <time>1970-01-01T00:00:00+00:00</time>
        <ele>14.0</ele>
      </trkpt>
      <trkpt lat="43.16172" lon="5.60303">
        <time>1970-01-01T00:00:00+00:00</time>
        <ele>2.0</ele>
      </trkpt>
      <trkpt lat="43.161865" lon="5.602939">
        <time>1970-01-01T00:00:00+00:00</time>
        <ele>7.0</ele>
      </trkpt>
      <trkpt lat="43.16207" lon="5.60266">
        <time>1970-01-01T00:00:00+00:00</time>
        <ele>10.0</ele>
      </trkpt>
      <trkpt lat="43.16222" lon="5.60207">
        <time>1970-01-01T00:00:00+00:00</time>
        <ele>5.0</ele>
      </trkpt>
      <trkpt lat="43.16232" lon="5.60213">
        <time>1970-01-01T00:00:00+00:00</time>
        <ele>27.0</ele>
      </trkpt>
      <trkpt lat="43.16241" lon="5.60185">
        <time>1970-01-01T00:00:00+00:00</time>
        <ele>19.0</ele>
      </trkpt>
      <trkpt lat="43.16279" lon="5.6012">
        <time>1970-01-01T00:00:00+00:00</time>
        <ele>37.0</ele>
      </trkpt>
      <trkpt lat="43.16285" lon="5.60111">
        <time>1970-01-01T00:00:00+00:00</time>
        <ele>42.0</ele>
      </trkpt>
      <trkpt lat="43.16295" lon="5.60111">
        <time>1970-01-01T00:00:00+00:00</time>
        <ele>67.0</ele>
      </trkpt>
      <trkpt lat="43.16309" lon="5.60062">
        <time>1970-01-01T00:00:00+00:00</time>
        <ele>64.0</ele>
      </trkpt>
      <trkpt lat="43.16314" lon="5.60069">
        <time>1970-01-01T00:00:00+00:00</time>
        <ele>87.0</ele>
      </trkpt>
      <trkpt lat="43.16323" lon="5.60041">
        <time>1970-01-01T00:00:00+00:00</time>
        <ele>57.0</ele>
      </trkpt>
      <trkpt lat="43.1633" lon="5.60047">
        <time>1970-01-01T00:00:00+00:00</time>
        <ele>81.0</ele>
      </trkpt>
      <trkpt lat="43.16337" lon="5.60042">
        <time>1970-01-01T00:00:00+00:00</time>
        <ele>89.0</ele>
      </trkpt>
      <trkpt lat="43.16346" lon="5.60021">
        <time>1970-01-01T00:00:00+00:00</time>
        <ele>82.0</ele>
      </trkpt>
      <trkpt lat="43.1635" lon="5.59974">
        <time>1970-01-01T00:00:00+00:00</time>
        <ele>20.0</ele>
      </trkpt>
      <trkpt lat="43.16367" lon="5.59912">
        <time>1970-01-01T00:00:00+00:00</time>
        <ele>15.0</ele>
      </trkpt>
      <trkpt lat="43.16359" lon="5.59904">
        <time>1970-01-01T00:00:00+00:00</time>
        <ele>4.0</ele>
      </trkpt>
      <trkpt lat="43.16362" lon="5.59918">
        <time>1970-01-01T00:00:00+00:00</time>
        <ele>15.0</ele>
      </trkpt>
      <trkpt lat="43.16381" lon="5.59918">
        <time>1970-01-01T00:00:00+00:00</time>
        <ele>31.0</ele>
      </trkpt>
      <trkpt lat="43.16384" lon="5.59934">
        <time>1970-01-01T00:00:00+00:00</time>
        <ele>46.0</ele>
      </trkpt>
      <trkpt lat="43.16375" lon="5.59944">
        <time>1970-01-01T00:00:00+00:00</time>
        <ele>45.0</ele>
      </trkpt>
      <trkpt lat="43.16379" lon="5.59942">
        <time>1970-01-01T00:00:00+00:00</time>
        <ele>48.0</ele>
      </trkpt>
      <trkpt lat="43.16386" lon="5.59962">
        <time>1970-01-01T00:00:00+00:00</time>
        <ele>64.0</ele>
      </trkpt>
      <trkpt lat="43.16404" lon="5.5997">
        <time>1970-01-01T00:00:00+00:00</time>
        <ele>60.0</ele>
      </trkpt>
      <trkpt lat="43.16412" lon="5.59967">
        <time>1970-01-01T00:00:00+00:00</time>
        <ele>57.0</ele>
      </trkpt>
      <trkpt lat="43.16414" lon="5.59955">
        <time>1970-01-01T00:00:00+00:00</time>
        <ele>50.0</ele>
      </trkpt>
      <trkpt lat="43.16418" lon="5.59965">
        <time>1970-01-01T00:00:00+00:00</time>
        <ele>55.0</ele>
      </trkpt>
      <trkpt lat="43.16415" lon="5.59973">
        <time>1970-01-01T00:00:00+00:00</time>
        <ele>58.0</ele>
      </trkpt>
      <trkpt lat="43.16405" lon="5.59969">
        <time>1970-01-01T00:00:00+00:00</time>
        <ele>59.0</ele>
      </trkpt>
      <trkpt lat="43.16387" lon="5.59983">
        <time>1970-01-01T00:00:00+00:00</time>
        <ele>69.0</ele>
      </trkpt>
      <trkpt lat="43.16389" lon="5.5999">
        <time>1970-01-01T00:00:00+00:00</time>
        <ele>70.0</ele>
      </trkpt>
      <trkpt lat="43.16398" lon="5.59987">
        <time>1970-01-01T00:00:00+00:00</time>
        <ele>66.0</ele>
      </trkpt>
    </trkseg>
  </trk>
</gpx>
